Date String (YYYY-MM-DD hh:mm:ss) UTC,Instrument flags,Ambient pressure (hPa),Sample flow (lpm),Bypass flow (lpm),Sample temperature (°C),Ambient temperature (°C),ASC tube jacket temperature (°C),LED temperature (°C),Box temperature (°C),Sample RH (%),Span deviation,Mass concentration (μg/m³),Mass concentration (μg/m³),Mass concentration (μg/m³)
DateTimeUTC,F1_M11,P_M11,Q1_M11,Q2_M11,T1_M11,T2_M11,T3_M11,T4_M11,T5_M11,U1_M11,ZSPAN_M11,X0_M11,X2_M11,X1_M11
2021-09-16 11:00:00,,0823.1,4.99,0.00,29.9,29.2,00.0,39.1,31.6,07.9,0003.0,0010.19,0005.63,0005.32
2021-09-16 11:01:00,,0823.1,5.00,0.00,29.9,29.2,00.0,39.1,31.6,07.9,0002.7,0009.63,0005.60,0005.32
2021-09-16 11:02:00,,0823.2,5.01,0.00,29.9,29.2,00.0,39.1,31.6,07.8,0003.2,0009.54,0005.57,0005.30
2021-09-16 11:03:00,,0823.1,5.00,0.00,29.9,29.2,00.0,39.1,31.7,07.8,0003.1,0009.84,0005.61,0005.30
2021-09-16 11:04:00,,0823.1,5.00,0.00,29.9,29.2,00.0,39.1,31.6,07.9,0003.0,0010.20,0005.64,0005.31
2021-09-16 11:05:00,,0823.2,5.01,0.00,29.9,29.2,00.0,39.1,31.7,07.9,0003.2,0010.13,0005.60,0005.29
2021-09-16 11:06:00,,0823.2,4.99,0.00,30.0,29.2,00.0,39.1,31.7,08.0,0003.5,0010.07,0005.59,0005.29
2021-09-16 11:07:00,,0823.3,5.00,0.00,30.0,29.2,00.0,39.1,31.7,08.1,0003.3,0010.04,0005.59,0005.30
2021-09-16 11:08:00,,0823.3,5.01,0.00,30.0,29.2,00.0,39.1,31.7,08.0,0003.6,0010.02,0005.58,0005.30
2021-09-16 11:09:00,,0823.2,5.00,0.00,30.0,29.2,00.0,39.1,31.7,08.0,0003.8,0009.02,0005.59,0005.30
2021-09-16 11:10:00,,0823.3,5.00,0.00,29.9,29.2,00.0,39.1,31.7,07.9,0003.6,0008.67,0005.61,0005.31
2021-09-16 11:11:00,,0823.3,4.99,0.00,29.9,29.1,00.0,39.1,31.6,07.8,0003.5,0008.69,0005.61,0005.30
2021-09-16 11:12:00,,0823.3,5.01,0.00,29.9,29.1,00.0,39.1,31.6,07.8,0003.5,0008.70,0005.60,0005.29
2021-09-16 11:13:00,,0823.3,4.99,0.00,29.9,29.1,00.0,39.1,31.7,07.8,0003.4,0009.01,0005.60,0005.28
2021-09-16 11:14:00,,0823.2,4.99,0.00,29.9,29.1,00.0,39.1,31.6,07.7,0003.4,0008.74,0005.52,0005.25
2021-09-16 11:15:00,,0823.2,5.00,0.00,29.9,29.1,00.0,39.1,31.6,07.8,0003.5,0008.32,0005.46,0005.22
2021-09-16 11:16:00,,0823.3,4.99,0.00,29.9,29.2,00.0,39.1,31.6,07.7,0003.6,0008.39,0005.47,0005.23
2021-09-16 11:17:00,,0823.3,5.01,0.00,30.0,29.2,00.0,39.1,31.7,08.1,0003.6,0008.50,0005.48,0005.22
2021-09-16 11:18:00,,0823.4,5.00,0.00,30.0,29.2,00.0,39.1,31.7,08.2,0003.6,0008.61,0005.48,0005.20
2021-09-16 11:19:00,,0823.3,5.00,0.00,30.0,29.2,00.0,39.1,31.7,08.1,0003.4,0008.82,0005.48,0005.18
2021-09-16 11:20:00,,0823.3,5.01,0.00,29.9,29.2,00.0,39.1,31.7,08.0,0003.2,0008.94,0005.45,0005.15
2021-09-16 11:21:00,,0823.3,5.00,0.00,30.0,29.2,00.0,39.1,31.7,07.9,0003.2,0008.84,0005.42,0005.14
2021-09-16 11:22:00,,0823.3,4.99,0.00,30.0,29.2,00.0,39.1,31.7,08.0,0003.3,0008.82,0005.40,0005.13
2021-09-16 11:23:00,,0823.3,4.99,0.00,30.0,29.2,00.0,39.1,31.7,08.0,0003.5,0008.74,0005.37,0005.12
2021-09-16 11:24:00,,0823.3,5.02,0.00,30.0,29.2,00.0,39.1,31.7,07.9,0003.4,0008.56,0005.37,0005.11
2021-09-16 11:25:00,,0823.4,4.99,0.00,30.0,29.2,00.0,39.1,31.7,08.0,0003.5,0008.43,0005.40,0005.11
2021-09-16 11:26:00,,0823.4,5.00,0.00,30.0,29.2,00.0,39.1,31.7,08.1,0003.6,0008.51,0005.42,0005.12
2021-09-16 11:27:00,,0823.3,5.00,0.00,30.0,29.2,00.0,39.1,31.7,08.3,0003.3,0008.47,0005.42,0005.11
2021-09-16 11:28:00,,0823.4,4.99,0.00,30.0,29.2,00.0,39.1,31.7,08.2,0003.2,0008.54,0005.45,0005.11
2021-09-16 11:29:00,,0823.4,5.00,0.00,29.9,29.2,00.0,39.1,31.7,08.1,0003.2,0008.49,0005.46,0005.11
2021-09-16 11:30:00,,0823.4,5.01,0.00,29.9,29.2,00.0,39.1,31.7,08.1,0003.1,0008.35,0005.44,0005.11
2021-09-16 11:31:00,,0823.4,4.99,0.00,29.9,29.2,00.0,39.1,31.7,08.0,0002.9,0008.39,0005.44,0005.11
2021-09-16 11:32:00,,0823.4,5.01,0.00,29.9,29.2,00.0,39.1,31.6,07.8,0003.2,0008.43,0005.46,0005.12
2021-09-16 11:33:00,,0823.4,4.99,0.00,29.9,29.2,00.0,39.1,31.6,07.8,0002.8,0008.43,0005.46,0005.12
2021-09-16 11:34:00,,0823.4,5.00,0.00,29.9,29.2,00.0,39.1,31.6,07.9,0002.5,0008.44,0005.46,0005.12
2021-09-16 11:35:00,,0823.4,5.00,0.00,29.9,29.2,00.0,39.1,31.6,07.9,0002.6,0008.54,0005.44,0005.10
2021-09-16 11:36:00,,0823.4,5.00,0.00,29.9,29.2,00.0,39.1,31.7,08.0,0003.1,0008.68,0005.44,0005.09
2021-09-16 11:37:00,,0823.3,5.00,0.00,29.9,29.2,00.0,39.1,31.7,07.9,0002.9,0008.64,0005.42,0005.08
2021-09-16 11:38:00,,0823.3,5.00,0.00,29.9,29.2,00.0,39.1,31.6,07.8,0003.3,0008.64,0005.42,0005.08
2021-09-16 11:39:00,,0823.3,5.00,0.00,29.9,29.2,00.0,39.1,31.7,07.9,0003.1,0008.55,0005.38,0005.08
2021-09-16 11:40:00,,0823.3,5.00,0.00,30.0,29.2,00.0,39.1,31.7,08.0,0003.2,0008.47,0005.35,0005.07
2021-09-16 11:41:00,,0823.3,4.99,0.00,30.0,29.2,00.0,39.1,31.7,08.1,0003.2,0008.49,0005.34,0005.05
2021-09-16 11:42:00,,0823.3,5.00,0.00,30.0,29.2,00.0,39.1,31.7,08.1,0003.1,0008.24,0005.32,0005.03
2021-09-16 11:43:00,,0823.2,5.00,0.00,30.0,29.2,00.0,39.1,31.7,08.1,0002.7,0008.19,0005.32,0005.02
2021-09-16 11:44:00,,0823.3,5.00,0.00,30.0,29.2,00.0,39.1,31.7,07.9,0002.7,0008.18,0005.31,0005.02
2021-09-16 11:45:00,,0823.3,5.02,0.00,30.0,29.2,00.0,39.1,31.7,08.1,0002.9,0008.42,0005.33,0005.03
2021-09-16 11:46:00,,0823.2,5.00,0.00,30.0,29.2,00.0,39.1,31.7,08.3,0002.8,0008.54,0005.34,0005.04
2021-09-16 11:47:00,,0823.2,4.99,0.00,29.9,29.2,00.0,39.1,31.6,08.3,0002.4,0008.53,0005.33,0005.04
2021-09-16 11:48:00,,0823.3,5.00,0.00,29.9,29.2,00.0,39.1,31.6,08.4,0002.6,0008.48,0005.31,0005.03
2021-09-16 11:49:00,,0823.2,4.99,0.00,29.9,29.1,00.0,39.1,31.6,08.5,0002.3,0008.51,0005.35,0005.04
2021-09-16 11:50:00,,0823.3,5.00,0.00,29.9,29.1,00.0,39.1,31.6,08.5,0002.5,0008.54,0005.37,0005.05
2021-09-16 11:51:00,,0823.3,5.00,0.00,29.9,29.1,00.0,39.1,31.6,08.4,0002.6,0008.49,0005.35,0005.04
2021-09-16 11:52:00,,0823.4,5.00,0.00,29.9,29.1,00.0,39.1,31.6,08.4,0002.9,0008.51,0005.34,0005.04
2021-09-16 11:53:00,,0823.4,5.00,0.00,29.9,29.1,00.0,39.1,31.6,08.4,0003.2,0008.48,0005.34,0005.06
2021-09-16 11:54:00,,0823.4,5.01,0.00,29.9,29.1,00.0,39.1,31.6,08.4,0003.6,0008.49,0005.34,0005.07
2021-09-16 11:55:00,,0823.3,5.00,0.00,29.9,29.1,00.0,39.1,31.6,08.3,0003.8,0008.53,0005.35,0005.07
2021-09-16 11:56:00,,0823.3,4.99,0.00,29.9,29.0,00.0,39.1,31.5,08.2,0003.4,0008.38,0005.35,0005.08
2021-09-16 11:57:00,,0823.4,5.01,0.00,29.9,29.1,00.0,39.1,31.6,08.2,0003.4,0008.20,0005.35,0005.07
2021-09-16 11:58:00,,0823.3,4.99,0.00,29.9,29.1,00.0,39.1,31.6,08.2,0003.6,0008.12,0005.36,0005.07
2021-09-16 11:59:00,,0823.3,5.01,0.00,29.9,29.1,00.0,39.1,31.5,08.4,0003.7,0008.12,0005.38,0005.08
